Regional Weather Roundup
Issued by NWS

Home | Current Version | Previous Version | Graphics & Text | Print | Product List | Glossary On
Versions: 1 2 3 4 5 6 7 8 9 10 11 12 13 14 15 16 17 18 19 20 21 22 23 24 25 26 27 28 29 30 31 32 33 34 35 36 37 38 39 40 41 42 43 44 45 46 47 48 49 50
574
ASUS45 KPSR 262310
RWRAZ

ARIZONA REGIONAL HOURLY WEATHER ROUNDUP
NATIONAL WEATHER SERVICE TUCSON AZ
400 PM MST MON JUN 26 2017

NOTE: FAIR INDICATES FEW OR NO CLOUDS BELOW 12,000 FEET WITH NO
SIGNIFICANT WEATHER AND/OR OBSTRUCTIONS TO VISIBILITY.

AZZ001>003-036-270000-
NORTHWEST ARIZONA

CITY           SKY/WX    TMP DP  RH WIND       PRES   REMARKS
BULLHEAD CITY  SUNNY    113  23   4 S13G23    29.73F HX 104
KINGMAN        SUNNY    102  29   7 SW21G35   30.00F
$$

AZZ004>008-015-016-018-270000-
NORTH CENTRAL ARIZONA

CITY           SKY/WX    TMP DP  RH WIND       PRES   REMARKS
GRAND CANYON   SUNNY     90  22   8 W16G28    30.24F
PRESCOTT       SUNNY     96  21   6 NW15G31   30.13F
FLAGSTAFF      MOSUNNY   87  23   9 W10G22    30.27F
PAYSON         PTCLDY    97  41  14 SW10G21   30.15F
PAGE           MOSUNNY  102  27   7 SW14G20   29.96F
$$

AZZ009>014-017-270000-
NORTHEAST ARIZONA

CITY           SKY/WX    TMP DP  RH WIND       PRES   REMARKS
WINSLOW        MOSUNNY   97  29   9 W8        30.07F
SAINT JOHNS    MOSUNNY   94  28   9 NW14G20   30.12F
WINDOW ROCK    LGT RAIN  82  36  19 E9G18     30.24S
SHOW LOW       PTSUNNY   82  36  18 SW15G21   30.25F
$$

AZZ023-270000-
GREATER PHOENIX AREA

CITY           SKY/WX    TMP DP  RH WIND       PRES   REMARKS
PHOENIX        MOSUNNY  110  48  12 W10G21    29.77F HX 106
BUCKEYE          N/A    111  39   8 W9G17     29.79F HX 105
GLENDALE       MOSUNNY  111  45  10 S17       29.79F HX 106
LUKE AFB       SUNNY    112  42   9 W15       29.76F HX 106
DEER VALLEY    SUNNY    107  50  15 SW7       29.80F HX 104
SCOTTSDALE     SUNNY    110  47  12 VRB5      29.82F HX 106
MESA-GATEWAY   MOSUNNY  108  52  15 W9        29.82F HX 105
CHANDLER       SUNNY    109  45  11 W8        29.80F HX 104
$$

AZZ027-028-270000-
SOUTHWEST MARICOPA COUNTY AND PINAL COUNTY

CITY           SKY/WX    TMP DP  RH WIND       PRES   REMARKS
CASA GRANDE      N/A    N/A N/A N/A MISG        N/A
$$

AZZ503-504-507>509-270000-
SOUTHEAST ARIZONA

CITY           SKY/WX    TMP DP  RH WIND       PRES   REMARKS
TUCSON         SUNNY    106  47  13 NW15G24   29.92F HX 102
DAVIS-MONTHAN  SUNNY    105  46  13 NW14G21   29.91F HX 100
RYAN FIELD     CLEAR    106  46  13 NW16      29.91F HX 102
NOGALES        PTSUNNY   96  47  18 VRB6      30.02F
SIERRA VISTA   MOSUNNY   93  43  17 W9        30.11F THUNDER
DOUGLAS        MOSUNNY   96  45  17 VRB5      30.03F
SAFFORD        PTSUNNY  102  43  13 E21G32    29.96F
$$

AZZ020-021-025-026-031-270000-
SOUTHWEST ARIZONA

CITY           SKY/WX    TMP DP  RH WIND       PRES   REMARKS
YUMA           MOSUNNY  112  45  10 NW7       29.76F HX 107
$$

CAZ031-033-041-043-047-048-061-270000-
SOUTHERN CALIFORNIA

CITY           SKY/WX    TMP DP  RH WIND       PRES   REMARKS
DOWNTOWN L.A.  SUNNY     84  53  34 VRB3      29.91F
L.A. AIRPORT   SUNNY     76  59  55 SW15      29.92F
SAN DIEGO      MOSUNNY   80  63  55 NW7       29.92F
BURBANK        SUNNY     95  43  16 S10       29.91S
ONTARIO        SUNNY     99  38  12 SW17      29.92S
RIVERSIDE      SUNNY    102  33   9 W20G26    29.91S
PALM SPRINGS   SUNNY    116  24   4 NW24G32   29.79F HX 106
EL CENTRO NAS  MOSUNNY  113  39   8 SE8       29.75F HX 106
IMPERIAL       PTSUNNY  113  49  12 CALM      29.73F HX 109
BLYTHE         PTSUNNY  116  32   6 SW23      29.73F HX 107
NEEDLES        PTSUNNY  115  16   3 SW12G23   29.76F HX 105
$$

NVZ020-UTZ003-270000-
SOUTHERN NEVADA-UTAH

CITY           SKY/WX    TMP DP  RH WIND       PRES   REMARKS
LAS VEGAS      SUNNY    108   1   2 SW20G28   29.81F
SALT LAKE CITY PTSUNNY   99  30   9 S16       29.92F
$$

NMZ009-TXZ055-270000-
NEW MEXICO-WEST TEXAS

CITY           SKY/WX    TMP DP  RH WIND       PRES   REMARKS
ALBUQUERQUE    CLOUDY    88  43  20 SW8       30.13F
EL PASO        MOSUNNY   92  57  30 NE9       30.06F
$$


........................KEY........................
SKY/WX - SKY CONDITION/WEATHER
TMP    - TEMPERATURE IN FAHRENHEIT
DP     - DEWPOINT IN FAHRENHEIT
RH     - RELATIVE HUMIDITY IN PERCENT
WIND   - DIRECTION AND SPEED IN MILES PER HOUR (MPH)
VRB    - VARIABLE WIND DIRECTION
PRES   - MEAN SEA LEVEL PRESSURE IN INCHES OF MERCURY
         F - FALLING PRESSURE   R - RISING PRESSURE
         S - STEADY PRESSURE
VSB    - VISIBILITY IN MILES
HX     - HEAT INDEX IN FAHRENHEIT
WCI    - WIND CHILL INDEX IN FAHRENHEIT
TC     - TEMPERATURE IN CELSIUS WHICH IS ALSO KNOWN AS
         TEMPERATURE IN CENTIGRADE
AFB    - AIR FORCE BASE
         LUKE AFB IS LUKE AIR FORCE BASE
         DAVIS-MONTHAN IS DAVIS-MONTHAN AIR FORCE BASE
NAS    - NAVAL AIR STATION
         EL CENTRO NAS IS EL CENTRO NAVAL AIR STATION
N/A    - NOT AVAILABLE





USA.gov is the U.S. government's official web portal to all federal, state and local government web resources and services.